Time,TemperatureF,DewpointF,PressureIn,WindDirection,WindDirectionDegrees,WindSpeedMPH,WindSpeedGustMPH,Humidity,HourlyPrecipIn,Conditions,Clouds,dailyrainin,SolarRadiationWatts/m^2,SoftwareType,DateUTC
2013-07-01 00:00:00,60.8,60.2,29.90,SSE,163,0.0,0.0,98,0.14,,,0.00,0,Wunderground v.1.15,2013-07-01 04:00:00,
2013-07-01 00:05:00,60.7,60.1,29.90,SSE,157,0.0,0.0,98,0.40,,,0.02,0,Wunderground v.1.15,2013-07-01 04:05:00,
2013-07-01 00:10:00,60.6,60.0,29.90,SSE,159,0.0,0.0,98,0.36,,,0.05,0,Wunderground v.1.15,2013-07-01 04:10:00,
2013-07-01 00:15:00,60.5,59.9,29.90,SSE,157,0.0,0.0,98,0.25,,,0.07,0,Wunderground v.1.15,2013-07-01 04:15:00,
2013-07-01 00:20:00,60.4,59.8,29.90,SSE,157,0.0,0.0,98,0.17,,,0.08,0,Wunderground v.1.15,2013-07-01 04:20:00,
2013-07-01 00:25:00,60.3,59.7,29.91,SSE,157,0.0,0.0,98,0.13,,,0.09,0,Wunderground v.1.15,2013-07-01 04:25:00,
2013-07-01 00:30:00,60.3,59.7,29.91,SSE,157,0.0,0.0,98,0.08,,,0.10,0,Wunderground v.1.15,2013-07-01 04:30:00,
2013-07-01 00:39:00,60.2,59.6,29.91,SSE,158,0.0,0.0,98,0.20,,,0.14,0,Wunderground v.1.15,2013-07-01 04:39:00,
2013-07-01 00:45:00,60.2,59.6,29.91,SSE,158,0.0,0.0,98,0.37,,,0.16,0,Wunderground v.1.15,2013-07-01 04:45:00,
2013-07-01 00:50:00,60.0,59.4,29.91,SSE,157,0.0,0.0,98,0.44,,,0.19,0,Wunderground v.1.15,2013-07-01 04:50:00,
2013-07-01 01:00:00,59.9,59.3,29.92,SSE,157,0.0,0.0,98,1.05,,,0.29,0,Wunderground v.1.15,2013-07-01 05:00:00,
2013-07-01 01:10:00,59.8,59.2,29.92,SSE,157,0.0,0.0,98,0.12,,,0.32,0,Wunderground v.1.15,2013-07-01 05:10:00,
2013-07-01 01:20:00,59.8,59.5,29.91,SSE,157,0.0,0.0,99,0.28,,,0.34,0,Wunderground v.1.15,2013-07-01 05:20:00,
2013-07-01 01:25:00,59.8,59.5,29.91,SSE,158,0.0,0.0,99,0.10,,,0.34,0,Wunderground v.1.15,2013-07-01 05:25:00,
2013-07-01 01:30:00,59.8,59.5,29.91,SSE,158,0.0,0.0,99,0.07,,,0.35,0,Wunderground v.1.15,2013-07-01 05:30:00,
2013-07-01 01:40:00,59.9,59.6,29.91,SSE,157,0.0,0.0,99,0.10,,,0.37,0,Wunderground v.1.15,2013-07-01 05:40:00,
2013-07-01 01:45:00,60.0,59.7,29.90,SSE,158,0.0,0.0,99,0.14,,,0.38,0,Wunderground v.1.15,2013-07-01 05:45:00,
2013-07-01 01:50:00,60.0,59.7,29.90,SSE,158,0.0,0.0,99,0.07,,,0.38,0,Wunderground v.1.15,2013-07-01 05:50:00,
2013-07-01 01:55:00,60.1,59.8,29.90,SSE,158,0.0,0.0,99,0.04,,,0.38,0,Wunderground v.1.15,2013-07-01 05:55:00,
2013-07-01 02:00:00,60.2,59.9,29.90,SSE,157,0.0,0.0,99,0.04,,,0.39,0,Wunderground v.1.15,2013-07-01 06:00:00,
2013-07-01 02:10:00,60.4,60.1,29.90,SSE,157,0.0,0.0,99,0.23,,,0.43,0,Wunderground v.1.15,2013-07-01 06:10:00,
2013-07-01 02:15:00,60.6,60.6,29.90,SSE,157,0.0,0.0,100,0.20,,,0.45,0,Wunderground v.1.15,2013-07-01 06:15:00,
2013-07-01 02:25:00,60.8,60.8,29.89,SSE,157,0.0,0.0,100,0.05,,,0.45,0,Wunderground v.1.15,2013-07-01 06:25:00,
2013-07-01 02:30:00,60.9,60.9,29.89,SSE,157,0.0,0.0,100,0.00,,,0.45,0,Wunderground v.1.15,2013-07-01 06:30:00,
2013-07-01 02:35:00,61.0,61.0,29.89,SSE,157,0.0,0.0,100,0.00,,,0.45,0,Wunderground v.1.15,2013-07-01 06:35:00,
2013-07-01 02:40:00,61.1,61.1,29.89,SSE,157,0.0,0.0,100,0.00,,,0.45,0,Wunderground v.1.15,2013-07-01 06:40:00,
2013-07-01 02:50:00,61.4,61.4,29.89,SSE,157,0.0,0.0,100,0.00,,,0.45,0,Wunderground v.1.15,2013-07-01 06:50:00,
2013-07-01 02:55:00,61.6,61.6,29.89,SSE,157,0.0,0.0,100,0.00,,,0.45,0,Wunderground v.1.15,2013-07-01 06:55:00,
2013-07-01 03:00:00,61.6,61.6,29.89,SSE,157,0.0,0.0,100,0.00,,,0.45,0,Wunderground v.1.15,2013-07-01 07:00:00,
2013-07-01 03:10:00,61.6,61.6,29.89,SSE,157,0.0,0.0,100,0.00,,,0.45,0,Wunderground v.1.15,2013-07-01 07:10:00,
2013-07-01 03:15:00,61.6,61.6,29.89,SSE,157,0.0,0.0,100,0.00,,,0.45,0,Wunderground v.1.15,2013-07-01 07:15:00,
2013-07-01 03:20:00,61.7,61.7,29.89,SSE,157,0.0,0.0,100,0.00,,,0.45,0,Wunderground v.1.15,2013-07-01 07:20:00,
2013-07-01 03:25:00,61.7,61.7,29.89,SSE,157,0.0,0.0,100,0.00,,,0.45,0,Wunderground v.1.15,2013-07-01 07:25:00,
2013-07-01 03:34:00,61.8,61.8,29.89,SSE,160,0.0,0.0,100,0.00,,,0.45,0,Wunderground v.1.15,2013-07-01 07:34:00,
2013-07-01 03:40:00,61.7,61.7,29.89,SSE,160,0.0,0.0,100,0.00,,,0.45,0,Wunderground v.1.15,2013-07-01 07:40:00,
2013-07-01 03:50:00,61.8,61.8,29.89,SSE,160,0.0,0.0,100,0.21,,,0.49,0,Wunderground v.1.15,2013-07-01 07:50:00,
2013-07-01 04:00:00,61.7,61.7,29.89,SSE,160,0.0,0.0,100,0.25,,,0.52,0,Wunderground v.1.15,2013-07-01 08:00:00,
2013-07-01 04:10:00,61.8,61.8,29.89,SSE,160,0.0,0.0,100,0.05,,,0.52,0,Wunderground v.1.15,2013-07-01 08:10:00,
2013-07-01 04:15:00,61.8,61.8,29.89,SSE,160,0.0,0.0,100,0.00,,,0.52,0,Wunderground v.1.15,2013-07-01 08:15:00,
2013-07-01 04:20:00,61.8,61.8,29.89,SSE,160,0.0,0.0,100,0.00,,,0.52,0,Wunderground v.1.15,2013-07-01 08:20:00,
2013-07-01 04:30:00,61.7,61.7,29.90,SSE,161,0.0,0.0,100,0.00,,,0.53,0,Wunderground v.1.15,2013-07-01 08:30:00,
2013-07-01 04:35:00,61.8,61.8,29.89,SSE,161,0.0,0.0,100,0.00,,,0.53,0,Wunderground v.1.15,2013-07-01 08:35:00,
2013-07-01 04:40:00,61.8,61.8,29.89,SSE,161,0.0,0.0,100,0.00,,,0.53,0,Wunderground v.1.15,2013-07-01 08:40:00,
2013-07-01 04:50:00,61.8,61.8,29.89,SSE,161,0.0,0.0,100,0.00,,,0.53,0,Wunderground v.1.15,2013-07-01 08:50:00,
2013-07-01 04:55:00,61.8,61.8,29.89,SSE,161,0.0,0.0,100,0.00,,,0.53,0,Wunderground v.1.15,2013-07-01 08:55:00,
2013-07-01 05:00:00,61.8,61.8,29.90,SSE,161,0.0,0.0,100,0.00,,,0.53,0,Wunderground v.1.15,2013-07-01 09:00:00,
2013-07-01 05:10:00,62.0,62.0,29.90,SSE,161,0.0,0.0,100,0.00,,,0.53,0,Wunderground v.1.15,2013-07-01 09:10:00,
2013-07-01 05:15:00,61.9,61.9,29.90,SSE,161,0.0,0.0,100,0.00,,,0.53,0,Wunderground v.1.15,2013-07-01 09:15:00,
2013-07-01 05:25:00,61.9,61.9,29.90,SSE,161,0.0,0.0,100,0.00,,,0.54,0,Wunderground v.1.15,2013-07-01 09:25:00,
2013-07-01 05:30:00,61.9,61.9,29.91,SSE,161,0.0,0.0,100,0.00,,,0.54,0,Wunderground v.1.15,2013-07-01 09:30:00,
2013-07-01 05:40:00,61.8,61.8,29.91,SSE,161,0.0,0.0,100,0.00,,,0.54,0,Wunderground v.1.15,2013-07-01 09:40:00,
2013-07-01 05:45:00,61.8,61.8,29.91,SSE,161,0.0,0.0,100,0.00,,,0.54,0,Wunderground v.1.15,2013-07-01 09:45:00,
2013-07-01 05:50:00,61.8,61.8,29.91,SSE,161,0.0,0.0,100,0.00,,,0.54,0,Wunderground v.1.15,2013-07-01 09:50:00,
2013-07-01 06:00:00,61.7,61.7,29.91,SSE,161,0.0,0.0,100,0.00,,,0.54,0,Wunderground v.1.15,2013-07-01 10:00:00,
2013-07-01 06:10:00,61.6,61.6,29.91,SSE,161,0.0,0.0,100,0.00,,,0.54,0,Wunderground v.1.15,2013-07-01 10:10:00,
2013-07-01 06:20:00,61.8,61.8,29.91,SSE,161,0.0,0.0,100,0.00,,,0.54,0,Wunderground v.1.15,2013-07-01 10:20:00,
2013-07-01 06:30:00,61.8,61.8,29.92,SSE,161,0.0,1.0,100,0.00,,,0.54,0,Wunderground v.1.15,2013-07-01 10:30:00,
2013-07-01 06:35:00,61.7,61.7,29.91,SSE,161,0.0,1.0,100,0.00,,,0.54,0,Wunderground v.1.15,2013-07-01 10:35:00,
2013-07-01 06:44:00,61.6,61.6,29.91,SSE,161,0.0,0.0,100,0.00,,,0.54,0,Wunderground v.1.15,2013-07-01 10:44:00,
2013-07-01 06:50:00,61.6,61.6,29.92,SSE,161,0.0,0.0,100,0.00,,,0.54,0,Wunderground v.1.15,2013-07-01 10:50:00,
2013-07-01 07:00:00,61.6,61.6,29.93,SSE,161,0.0,0.0,100,0.00,,,0.54,5,Wunderground v.1.15,2013-07-01 11:00:00,
2013-07-01 07:10:00,61.6,61.6,29.93,SSE,161,0.0,0.0,100,0.00,,,0.54,9,Wunderground v.1.15,2013-07-01 11:10:00,
2013-07-01 07:19:00,61.5,61.5,29.93,SSE,161,0.0,0.0,100,0.00,,,0.54,14,Wunderground v.1.15,2013-07-01 11:19:00,
2013-07-01 07:25:00,61.5,61.5,29.93,SSE,161,0.0,0.0,100,0.00,,,0.54,18,Wunderground v.1.15,2013-07-01 11:25:00,
2013-07-01 07:30:00,61.5,61.5,29.94,SSE,161,0.0,0.0,100,0.00,,,0.54,16,Wunderground v.1.15,2013-07-01 11:30:00,
2013-07-01 07:35:00,61.5,61.5,29.94,SSE,161,0.0,0.0,100,0.00,,,0.54,18,Wunderground v.1.15,2013-07-01 11:35:00,
2013-07-01 07:45:00,61.6,61.6,29.94,SSE,161,0.0,0.0,100,0.00,,,0.54,33,Wunderground v.1.15,2013-07-01 11:45:00,
2013-07-01 07:50:00,61.5,61.5,29.94,SSE,161,0.0,0.0,100,0.00,,,0.54,23,Wunderground v.1.15,2013-07-01 11:50:00,
2013-07-01 07:55:00,61.6,61.6,29.94,SSE,161,0.0,0.0,100,0.00,,,0.54,18,Wunderground v.1.15,2013-07-01 11:55:00,
2013-07-01 08:00:00,61.6,61.6,29.94,SSE,163,0.0,0.0,100,0.00,,,0.54,23,Wunderground v.1.15,2013-07-01 12:00:00,
2013-07-01 08:10:00,61.6,61.6,29.94,SSE,163,0.0,0.0,100,0.00,,,0.55,40,Wunderground v.1.15,2013-07-01 12:10:00,
2013-07-01 08:15:00,61.6,61.6,29.94,SSE,163,0.0,0.0,100,0.00,,,0.55,35,Wunderground v.1.15,2013-07-01 12:15:00,
2013-07-01 08:25:00,61.6,61.6,29.94,SSE,163,0.0,0.0,100,0.00,,,0.55,46,Wunderground v.1.15,2013-07-01 12:25:00,
2013-07-01 08:30:00,61.6,61.6,29.94,SSE,163,0.0,0.0,100,0.00,,,0.55,79,Wunderground v.1.15,2013-07-01 12:30:00,
2013-07-01 08:40:00,61.8,61.8,29.94,SSE,163,0.0,0.0,100,0.00,,,0.56,95,Wunderground v.1.15,2013-07-01 12:40:00,
2013-07-01 08:45:00,62.1,62.1,29.95,SSE,163,0.0,0.0,100,0.00,,,0.56,67,Wunderground v.1.15,2013-07-01 12:45:00,
2013-07-01 08:50:00,62.4,62.4,29.95,SSE,163,0.0,0.0,100,0.00,,,0.56,49,Wunderground v.1.15,2013-07-01 12:50:00,
2013-07-01 09:00:00,62.5,62.5,29.95,SSE,163,0.0,0.0,100,0.00,,,0.56,67,Wunderground v.1.15,2013-07-01 13:00:00,
2013-07-01 09:10:00,62.7,62.7,29.96,SSE,163,0.0,0.0,100,0.00,,,0.56,123,Wunderground v.1.15,2013-07-01 13:10:00,
2013-07-01 09:20:00,63.0,63.0,29.95,SSE,163,0.0,0.0,100,0.00,,,0.56,105,Wunderground v.1.15,2013-07-01 13:20:00,
2013-07-01 09:25:00,63.0,63.0,29.95,SSE,163,0.0,0.0,100,0.00,,,0.56,93,Wunderground v.1.15,2013-07-01 13:25:00,
2013-07-01 09:30:00,63.0,63.0,29.95,SSE,163,0.0,0.0,100,0.00,,,0.56,88,Wunderground v.1.15,2013-07-01 13:30:00,
2013-07-01 09:40:00,63.1,63.1,29.95,SSE,163,0.0,0.0,100,0.00,,,0.56,111,Wunderground v.1.15,2013-07-01 13:40:00,
2013-07-01 09:45:00,63.2,63.2,29.95,SSE,163,0.0,0.0,100,0.00,,,0.56,120,Wunderground v.1.15,2013-07-01 13:45:00,
2013-07-01 09:50:00,63.5,63.5,29.95,SSE,163,0.0,1.0,100,0.00,,,0.56,77,Wunderground v.1.15,2013-07-01 13:50:00,
2013-07-01 10:00:00,63.5,63.5,29.96,SSE,163,0.0,0.0,100,0.00,,,0.56,54,Wunderground v.1.15,2013-07-01 14:00:00,
2013-07-01 10:10:00,63.3,63.3,29.96,SSE,163,0.0,0.0,100,0.00,,,0.56,51,Wunderground v.1.15,2013-07-01 14:10:00,
2013-07-01 10:15:00,63.3,63.3,29.96,SSE,163,0.0,1.0,100,0.00,,,0.56,62,Wunderground v.1.15,2013-07-01 14:15:00,
2013-07-01 10:20:00,63.2,63.2,29.96,SSE,163,0.0,1.0,100,0.00,,,0.56,54,Wunderground v.1.15,2013-07-01 14:20:00,
2013-07-01 10:25:00,63.2,63.2,29.97,SSE,163,0.0,1.0,100,0.00,,,0.56,54,Wunderground v.1.15,2013-07-01 14:25:00,
2013-07-01 10:30:00,63.2,63.2,29.97,SSE,163,0.0,1.0,100,0.00,,,0.56,42,Wunderground v.1.15,2013-07-01 14:30:00,
2013-07-01 10:40:00,63.2,63.2,29.97,SSE,164,0.0,0.0,100,0.00,,,0.56,74,Wunderground v.1.15,2013-07-01 14:40:00,
2013-07-01 10:45:00,63.2,63.2,29.97,SSE,164,0.0,0.0,100,0.00,,,0.56,88,Wunderground v.1.15,2013-07-01 14:45:00,
2013-07-01 10:55:00,63.4,63.4,29.97,SSE,164,0.0,0.0,100,0.00,,,0.56,79,Wunderground v.1.15,2013-07-01 14:55:00,
2013-07-01 11:00:00,63.4,63.4,29.97,SSE,164,0.0,0.0,100,0.00,,,0.56,181,Wunderground v.1.15,2013-07-01 15:00:00,
2013-07-01 11:10:00,63.7,63.7,29.97,SSE,164,0.0,0.0,100,0.00,,,0.56,204,Wunderground v.1.15,2013-07-01 15:10:00,
2013-07-01 11:15:00,64.0,64.0,29.98,SSE,164,0.0,0.0,100,0.00,,,0.56,209,Wunderground v.1.15,2013-07-01 15:15:00,
2013-07-01 11:25:00,64.1,64.1,29.98,SSE,164,0.0,0.0,100,0.00,,,0.56,104,Wunderground v.1.15,2013-07-01 15:25:00,
2013-07-01 11:30:00,64.1,64.1,29.98,SSE,164,0.0,0.0,100,0.00,,,0.56,90,Wunderground v.1.15,2013-07-01 15:30:00,
2013-07-01 11:40:00,64.1,64.1,29.98,SSE,164,0.0,1.0,100,0.00,,,0.56,53,Wunderground v.1.15,2013-07-01 15:40:00,
2013-07-01 11:45:00,64.1,64.1,29.98,SSE,164,0.0,1.0,100,0.00,,,0.56,134,Wunderground v.1.15,2013-07-01 15:45:00,
2013-07-01 11:55:00,64.2,64.2,29.98,SSE,164,0.0,0.0,100,0.00,,,0.56,162,Wunderground v.1.15,2013-07-01 15:55:00,
2013-07-01 12:00:00,64.3,64.3,29.98,SSE,164,0.0,1.0,100,0.00,,,0.56,213,Wunderground v.1.15,2013-07-01 16:00:00,
2013-07-01 12:10:00,64.7,64.7,29.98,South,174,0.0,0.0,100,0.00,,,0.56,227,Wunderground v.1.15,2013-07-01 16:10:00,
2013-07-01 12:15:00,64.8,64.8,29.97,SSW,206,0.0,0.0,100,0.00,,,0.56,137,Wunderground v.1.15,2013-07-01 16:15:00,
2013-07-01 12:20:00,64.8,64.8,29.98,SSW,206,0.0,0.0,100,0.00,,,0.56,125,Wunderground v.1.15,2013-07-01 16:20:00,
2013-07-01 12:30:00,65.4,65.4,29.98,SSW,206,0.0,0.0,100,0.00,,,0.56,315,Wunderground v.1.15,2013-07-01 16:30:00,
2013-07-01 12:35:00,65.7,65.7,29.97,SSW,206,0.0,0.0,100,0.00,,,0.56,875,Wunderground v.1.15,2013-07-01 16:35:00,
2013-07-01 12:45:00,66.5,66.5,29.97,SSW,211,0.0,1.0,100,0.00,,,0.56,527,Wunderground v.1.15,2013-07-01 16:45:00,
2013-07-01 12:50:00,66.7,66.7,29.97,South,190,1.0,1.0,100,0.00,,,0.56,527,Wunderground v.1.15,2013-07-01 16:50:00,
2013-07-01 12:55:00,67.1,67.1,29.97,SSW,194,1.0,1.0,100,0.00,,,0.56,693,Wunderground v.1.15,2013-07-01 16:55:00,
2013-07-01 13:00:00,67.7,67.7,29.97,SSW,196,0.0,0.0,100,0.00,,,0.56,1123,Wunderground v.1.15,2013-07-01 17:00:00,
2013-07-01 13:10:00,68.4,68.4,29.97,SSW,198,0.0,0.0,100,0.00,,,0.56,311,Wunderground v.1.15,2013-07-01 17:10:00,
2013-07-01 13:20:00,68.8,68.5,29.96,SSW,202,0.0,0.0,99,0.00,,,0.56,410,Wunderground v.1.15,2013-07-01 17:20:00,
2013-07-01 13:25:00,68.7,68.1,29.96,WSW,257,1.0,1.0,98,0.00,,,0.56,329,Wunderground v.1.15,2013-07-01 17:25:00,
2013-07-01 13:35:00,68.8,67.3,29.96,SW,236,1.0,3.0,95,0.00,,,0.56,232,Wunderground v.1.15,2013-07-01 17:35:00,
2013-07-01 13:45:00,69.3,67.5,29.97,SW,236,0.0,0.0,94,0.00,,,0.56,197,Wunderground v.1.15,2013-07-01 17:45:00,
2013-07-01 13:50:00,69.5,67.7,29.97,SW,236,0.0,0.0,94,0.00,,,0.56,288,Wunderground v.1.15,2013-07-01 17:50:00,
2013-07-01 14:00:00,69.9,67.8,29.97,SSW,210,1.0,1.0,93,0.00,,,0.56,139,Wunderground v.1.15,2013-07-01 18:00:00,
2013-07-01 14:10:00,70.4,68.9,29.97,SSW,210,0.0,1.0,95,0.00,,,0.56,506,Wunderground v.1.15,2013-07-01 18:10:00,
2013-07-01 14:15:00,70.6,68.5,29.96,SSW,210,0.0,1.0,93,0.00,,,0.56,274,Wunderground v.1.15,2013-07-01 18:15:00,
2013-07-01 14:25:00,70.6,67.8,29.96,SSW,211,0.0,3.0,91,0.00,,,0.56,352,Wunderground v.1.15,2013-07-01 18:25:00,
2013-07-01 14:35:00,72.1,69.3,29.96,WSW,240,1.0,1.0,91,0.00,,,0.56,1141,Wunderground v.1.15,2013-07-01 18:35:00,
2013-07-01 14:45:00,72.6,69.5,29.95,South,171,0.0,1.0,90,0.00,,,0.56,304,Wunderground v.1.15,2013-07-01 18:45:00,
2013-07-01 14:50:00,72.7,69.6,29.96,WSW,250,0.0,0.0,90,0.00,,,0.56,142,Wunderground v.1.15,2013-07-01 18:50:00,
2013-07-01 14:55:00,72.7,68.6,29.96,WSW,250,0.0,0.0,87,0.00,,,0.56,264,Wunderground v.1.15,2013-07-01 18:55:00,
2013-07-01 15:00:00,72.6,68.5,29.96,WSW,252,0.0,2.0,87,0.00,,,0.56,167,Wunderground v.1.15,2013-07-01 19:00:00,
2013-07-01 15:10:00,72.4,69.0,29.96,WSW,252,0.0,0.0,89,0.00,,,0.56,478,Wunderground v.1.15,2013-07-01 19:10:00,
2013-07-01 15:15:00,72.4,69.3,29.96,WSW,252,0.0,1.0,90,0.00,,,0.56,353,Wunderground v.1.15,2013-07-01 19:15:00,
2013-07-01 15:20:00,72.3,68.5,29.96,West,273,0.0,1.0,88,0.00,,,0.56,200,Wunderground v.1.15,2013-07-01 19:20:00,
2013-07-01 15:30:00,72.2,68.8,29.97,West,275,0.0,0.0,89,0.00,,,0.56,283,Wunderground v.1.15,2013-07-01 19:30:00,
2013-07-01 15:35:00,72.1,68.3,29.97,West,275,0.0,0.0,88,0.00,,,0.56,190,Wunderground v.1.15,2013-07-01 19:35:00,
2013-07-01 15:45:00,71.8,68.4,29.97,West,260,0.0,0.0,89,0.00,,,0.56,120,Wunderground v.1.15,2013-07-01 19:45:00,
2013-07-01 15:50:00,71.7,68.6,29.97,West,260,0.0,0.0,90,0.00,,,0.56,207,Wunderground v.1.15,2013-07-01 19:50:00,
2013-07-01 16:00:00,71.6,68.8,29.96,West,260,0.0,0.0,91,0.00,,,0.56,283,Wunderground v.1.15,2013-07-01 20:00:00,
2013-07-01 16:10:00,71.7,68.6,29.96,West,260,0.0,0.0,90,0.00,,,0.56,250,Wunderground v.1.15,2013-07-01 20:10:00,
2013-07-01 16:20:00,71.6,68.5,29.96,West,260,0.0,0.0,90,0.00,,,0.56,239,Wunderground v.1.15,2013-07-01 20:20:00,
2013-07-01 16:30:00,71.6,68.8,29.96,West,266,0.0,0.0,91,0.00,,,0.56,225,Wunderground v.1.15,2013-07-01 20:30:00,
2013-07-01 16:35:00,71.5,68.4,29.95,West,265,0.0,0.0,90,0.00,,,0.56,211,Wunderground v.1.15,2013-07-01 20:35:00,
2013-07-01 16:45:00,71.3,68.2,29.96,West,267,0.0,0.0,90,0.00,,,0.56,206,Wunderground v.1.15,2013-07-01 20:45:00,
2013-07-01 16:55:00,71.8,69.0,29.96,West,275,0.0,1.0,91,0.00,,,0.56,204,Wunderground v.1.15,2013-07-01 20:55:00,
2013-07-01 17:00:00,71.9,68.8,29.96,NW,311,0.0,0.0,90,0.00,,,0.56,132,Wunderground v.1.15,2013-07-01 21:00:00,
2013-07-01 17:10:00,72.0,68.9,29.96,NW,311,0.0,0.0,90,0.00,,,0.56,327,Wunderground v.1.15,2013-07-01 21:10:00,
2013-07-01 17:15:00,72.0,68.6,29.96,NW,311,0.0,1.0,89,0.00,,,0.56,84,Wunderground v.1.15,2013-07-01 21:15:00,
2013-07-01 17:20:00,71.7,68.3,29.96,NW,313,1.0,1.0,89,0.00,,,0.56,77,Wunderground v.1.15,2013-07-01 21:20:00,
2013-07-01 17:30:00,71.2,67.8,29.96,NW,313,0.0,0.0,89,0.00,,,0.56,79,Wunderground v.1.15,2013-07-01 21:30:00,
2013-07-01 17:40:00,70.5,67.4,29.96,NW,313,0.0,0.0,90,0.00,,,0.56,102,Wunderground v.1.15,2013-07-01 21:40:00,
2013-07-01 17:45:00,70.3,67.5,29.96,NW,313,0.0,0.0,91,0.00,,,0.56,69,Wunderground v.1.15,2013-07-01 21:45:00,
2013-07-01 17:50:00,70.2,67.4,29.96,NW,313,0.0,0.0,91,0.00,,,0.56,114,Wunderground v.1.15,2013-07-01 21:50:00,
2013-07-01 18:00:00,69.8,67.4,29.96,NW,313,0.0,0.0,92,0.00,,,0.56,53,Wunderground v.1.15,2013-07-01 22:00:00,
2013-07-01 18:10:00,69.5,67.1,29.96,NW,313,0.0,0.0,92,0.00,,,0.56,37,Wunderground v.1.15,2013-07-01 22:10:00,
2013-07-01 18:20:00,69.2,67.1,29.97,West,271,1.0,1.0,93,0.00,,,0.56,56,Wunderground v.1.15,2013-07-01 22:20:00,
2013-07-01 18:25:00,69.0,67.2,29.97,NNE,21,0.0,1.0,94,0.00,,,0.56,37,Wunderground v.1.15,2013-07-01 22:25:00,
2013-07-01 18:30:00,69.0,67.2,29.98,NNE,22,0.0,0.0,94,0.00,,,0.56,51,Wunderground v.1.15,2013-07-01 22:30:00,
2013-07-01 18:35:00,68.9,67.1,29.97,NNE,22,0.0,0.0,94,0.00,,,0.56,79,Wunderground v.1.15,2013-07-01 22:35:00,
2013-07-01 18:45:00,68.8,67.3,29.98,NNW,330,0.0,0.0,95,0.00,,,0.56,46,Wunderground v.1.15,2013-07-01 22:45:00,
2013-07-01 18:50:00,68.7,67.2,29.98,NNW,330,0.0,0.0,95,0.00,,,0.56,18,Wunderground v.1.15,2013-07-01 22:50:00,
2013-07-01 18:55:00,68.7,67.2,29.98,NNW,330,0.0,0.0,95,0.00,,,0.56,56,Wunderground v.1.15,2013-07-01 22:55:00,
2013-07-01 19:00:00,68.6,67.1,29.98,WSW,240,0.0,0.0,95,0.00,,,0.56,44,Wunderground v.1.15,2013-07-01 23:00:00,
2013-07-01 19:10:00,68.5,67.0,29.98,NW,317,0.0,1.0,95,0.00,,,0.56,7,Wunderground v.1.15,2013-07-01 23:10:00,
2013-07-01 19:15:00,68.4,66.9,29.98,WNW,294,0.0,1.0,95,0.00,,,0.56,0,Wunderground v.1.15,2013-07-01 23:15:00,
2013-07-01 19:25:00,68.2,66.7,29.99,NW,326,1.0,1.0,95,0.00,,,0.56,12,Wunderground v.1.15,2013-07-01 23:25:00,
2013-07-01 19:35:00,68.1,66.9,29.99,WNW,288,0.0,2.0,96,0.00,,,0.56,16,Wunderground v.1.15,2013-07-01 23:35:00,
2013-07-01 19:45:00,67.9,66.7,30.00,NNW,340,1.0,1.0,96,0.00,,,0.56,9,Wunderground v.1.15,2013-07-01 23:45:00,
2013-07-01 19:50:00,67.9,67.0,29.99,NNW,340,0.0,1.0,97,0.00,,,0.56,5,Wunderground v.1.15,2013-07-01 23:50:00,
2013-07-01 19:55:00,67.9,67.0,29.99,NNW,338,0.0,1.0,97,0.00,,,0.56,18,Wunderground v.1.15,2013-07-01 23:55:00,
2013-07-01 20:00:00,67.8,66.9,30.00,NNW,339,0.0,0.0,97,0.00,,,0.56,16,Wunderground v.1.15,2013-07-02 00:00:00,
2013-07-01 20:10:00,67.7,66.8,30.00,NNW,340,0.0,1.0,97,0.00,,,0.56,9,Wunderground v.1.15,2013-07-02 00:10:00,
2013-07-01 20:15:00,67.6,66.7,29.99,NNW,340,0.0,1.0,97,0.00,,,0.56,0,Wunderground v.1.15,2013-07-02 00:15:00,
2013-07-01 20:20:00,67.6,66.7,29.99,NNW,327,0.0,7.0,97,0.00,,,0.56,5,Wunderground v.1.15,2013-07-02 00:20:00,
2013-07-01 20:30:00,67.5,66.6,30.00,NW,321,0.0,0.0,97,0.00,,,0.56,0,Wunderground v.1.15,2013-07-02 00:30:00,
2013-07-01 20:35:00,67.5,66.9,30.01,NW,321,0.0,0.0,98,0.00,,,0.56,0,Wunderground v.1.15,2013-07-02 00:35:00,
2013-07-01 20:40:00,67.4,66.8,30.00,NW,321,0.0,0.0,98,0.00,,,0.56,0,Wunderground v.1.15,2013-07-02 00:40:00,
2013-07-01 20:45:00,67.4,66.8,30.01,NW,321,0.0,0.0,98,0.00,,,0.56,0,Wunderground v.1.15,2013-07-02 00:45:00,
2013-07-01 20:55:00,67.3,66.7,30.01,NW,321,0.0,2.0,98,0.00,,,0.56,0,Wunderground v.1.15,2013-07-02 00:55:00,
2013-07-01 21:00:00,67.2,66.6,30.01,NW,321,0.0,0.0,98,0.00,,,0.56,0,Wunderground v.1.15,2013-07-02 01:00:00,
2013-07-01 21:10:00,67.2,66.6,30.01,NW,326,0.0,6.0,98,3.31,,,0.67,0,Wunderground v.1.15,2013-07-02 01:10:00,
2013-07-01 21:20:00,67.0,66.4,30.01,NW,326,1.0,1.0,98,0.14,,,0.74,0,Wunderground v.1.15,2013-07-02 01:20:00,
2013-07-01 21:25:00,66.9,66.3,30.01,WSW,244,0.0,1.0,98,0.07,,,0.74,0,Wunderground v.1.15,2013-07-02 01:25:00,
2013-07-01 21:30:00,66.8,66.2,30.03,WSW,257,0.0,2.0,98,0.04,,,0.74,0,Wunderground v.1.15,2013-07-02 01:30:00,
2013-07-01 21:35:00,66.7,66.1,30.03,West,279,1.0,2.0,98,0.00,,,0.74,0,Wunderground v.1.15,2013-07-02 01:35:00,
2013-07-01 21:45:00,66.6,66.3,30.03,SW,220,1.0,2.0,99,0.10,,,0.76,0,Wunderground v.1.15,2013-07-02 01:45:00,
2013-07-01 21:50:00,66.6,66.3,30.03,SW,227,1.0,1.0,99,0.12,,,0.77,0,Wunderground v.1.15,2013-07-02 01:50:00,
2013-07-01 21:55:00,66.6,66.3,30.03,SW,227,0.0,1.0,99,0.23,,,0.79,0,Wunderground v.1.15,2013-07-02 01:55:00,
2013-07-01 22:00:00,66.7,66.4,30.03,SW,228,0.0,0.0,99,0.40,,,0.83,0,Wunderground v.1.15,2013-07-02 02:00:00,
2013-07-01 22:10:00,66.6,66.3,30.03,NE,53,0.0,1.0,99,0.53,,,0.90,0,Wunderground v.1.15,2013-07-02 02:10:00,
2013-07-01 22:15:00,66.1,65.8,30.02,South,187,1.0,1.0,99,0.36,,,0.93,0,Wunderground v.1.15,2013-07-02 02:15:00,
2013-07-01 22:25:00,65.4,65.1,30.04,SSE,167,0.0,1.0,99,0.84,,,1.04,0,Wunderground v.1.15,2013-07-02 02:25:00,
2013-07-01 22:30:00,65.2,64.9,30.04,SSE,167,0.0,0.0,99,4.33,,,1.19,0,Wunderground v.1.15,2013-07-02 02:30:00,
2013-07-01 22:40:00,64.8,64.5,30.05,NW,324,3.0,5.0,99,2.36,,,1.57,0,Wunderground v.1.15,2013-07-02 02:40:00,
2013-07-01 22:45:00,64.0,63.4,30.05,NNE,28,3.0,5.0,98,1.89,,,1.80,0,Wunderground v.1.15,2013-07-02 02:45:00,
2013-07-01 22:55:00,63.4,62.8,30.06,NE,36,1.0,3.0,98,0.36,,,1.94,0,Wunderground v.1.15,2013-07-02 02:55:00,
2013-07-01 23:00:00,63.2,62.9,30.06,North,360,1.0,1.0,99,2.05,,,2.10,0,Wunderground v.1.15,2013-07-02 03:00:00,
2013-07-01 23:10:00,63.1,62.8,30.06,NNE,13,0.0,0.0,99,0.74,,,2.21,0,Wunderground v.1.15,2013-07-02 03:10:00,
2013-07-01 23:15:00,63.1,62.8,30.06,NNE,13,0.0,0.0,99,0.36,,,2.24,0,Wunderground v.1.15,2013-07-02 03:15:00,
2013-07-01 23:20:00,63.0,62.7,30.06,NNE,17,1.0,2.0,99,0.39,,,2.28,0,Wunderground v.1.15,2013-07-02 03:20:00,
2013-07-01 23:30:00,62.9,62.6,30.06,NNE,17,1.0,2.0,99,0.57,,,2.36,0,Wunderground v.1.15,2013-07-02 03:30:00,
2013-07-01 23:35:00,62.9,62.6,30.06,NNE,17,1.0,2.0,99,0.42,,,2.40,0,Wunderground v.1.15,2013-07-02 03:35:00,
2013-07-01 23:45:00,62.7,62.4,30.06,NNE,15,1.0,1.0,99,1.52,,,2.49,0,Wunderground v.1.15,2013-07-02 03:45:00,
2013-07-01 23:50:00,62.7,62.7,30.06,NNE,14,0.0,0.0,100,0.65,,,2.55,0,Wunderground v.1.15,2013-07-02 03:50:00,